Time,TemperatureF,DewpointF,PressureIn,WindDirection,WindDirectionDegrees,WindSpeedMPH,WindSpeedGustMPH,Humidity,HourlyPrecipIn,Conditions,Clouds,dailyrainin,SoftwareType,DateUTC
2013-03-29 00:00:00,38.8,2.3,17.72,West,273,0.0,0.0,21,0.00,,---,0.00,VWS V13.01,2013-03-29 04:00:00,
2013-03-29 00:05:00,38.8,2.3,17.72,South,174,0.0,0.0,21,0.00,,---,0.00,VWS V13.01,2013-03-29 04:05:00,
2013-03-29 00:10:00,38.7,2.1,17.72,SSW,212,0.0,0.0,21,0.00,,---,0.00,VWS V13.01,2013-03-29 04:10:00,
2013-03-29 00:15:00,38.7,2.1,17.72,West,268,0.0,2.7,21,0.00,,---,0.00,VWS V13.01,2013-03-29 04:15:00,
2013-03-29 00:20:00,38.8,2.3,17.72,SW,227,4.0,4.0,21,0.00,,---,0.00,VWS V13.01,2013-03-29 04:20:00,
2013-03-29 00:25:00,38.8,2.3,17.72,West,275,2.7,2.7,21,0.00,,---,0.00,VWS V13.01,2013-03-29 04:25:00,
2013-03-29 00:30:00,38.8,2.3,17.72,SSW,199,0.0,3.6,21,0.00,,---,0.00,VWS V13.01,2013-03-29 04:30:00,
2013-03-29 00:35:00,38.8,2.3,17.72,West,279,0.0,0.0,21,0.00,,---,0.00,VWS V13.01,2013-03-29 04:35:00,
2013-03-29 00:40:00,38.8,2.3,17.72,West,276,2.7,2.7,21,0.00,,---,0.00,VWS V13.01,2013-03-29 04:40:00,
2013-03-29 00:45:00,38.8,2.3,17.72,WNW,284,0.0,0.0,21,0.00,,---,0.00,VWS V13.01,2013-03-29 04:45:00,
2013-03-29 00:50:00,38.8,2.3,17.72,WNW,282,0.0,2.2,21,0.00,,---,0.00,VWS V13.01,2013-03-29 04:50:00,
2013-03-29 00:55:00,38.8,2.3,17.72,WNW,290,0.0,0.0,21,0.00,,---,0.00,VWS V13.01,2013-03-29 04:55:00,
2013-03-29 01:00:00,38.8,2.3,17.72,WSW,255,2.2,2.7,21,0.00,,---,0.00,VWS V13.01,2013-03-29 05:00:00,
2013-03-29 01:05:00,38.8,2.3,17.72,WNW,303,0.0,0.0,21,0.00,,---,0.00,VWS V13.01,2013-03-29 05:05:00,
2013-03-29 01:10:00,38.8,2.3,17.72,NE,36,2.2,3.6,21,0.00,,---,0.00,VWS V13.01,2013-03-29 05:10:00,
2013-03-29 01:15:00,38.8,2.3,17.72,WNW,297,0.0,0.0,21,0.00,,---,0.00,VWS V13.01,2013-03-29 05:15:00,
2013-03-29 01:20:00,38.8,2.3,17.72,WSW,253,0.0,2.7,21,0.00,,---,0.00,VWS V13.01,2013-03-29 05:20:00,
2013-03-29 01:25:00,38.8,2.3,17.72,West,273,0.0,5.4,21,0.00,,---,0.00,VWS V13.01,2013-03-29 05:25:00,
2013-03-29 01:30:00,38.8,2.3,17.72,NNE,17,0.0,2.2,21,0.00,,---,0.00,VWS V13.01,2013-03-29 05:30:00,
2013-03-29 01:35:00,38.8,2.3,17.72,SSW,195,4.9,4.9,21,0.00,,---,0.00,VWS V13.01,2013-03-29 05:35:00,
2013-03-29 01:40:00,38.7,2.1,17.72,NNW,338,2.7,3.1,21,0.00,,---,0.00,VWS V13.01,2013-03-29 05:40:00,
2013-03-29 01:45:00,38.7,2.1,17.72,SSW,210,0.0,0.0,21,0.00,,---,0.00,VWS V13.01,2013-03-29 05:45:00,
2013-03-29 01:50:00,38.7,2.1,17.72,WSW,240,0.0,2.2,21,0.00,,---,0.00,VWS V13.01,2013-03-29 05:50:00,
2013-03-29 01:55:00,38.7,2.1,17.72,NW,323,0.0,0.0,21,0.00,,---,0.00,VWS V13.01,2013-03-29 05:55:00,
2013-03-29 02:00:00,38.7,2.1,17.72,NW,305,2.2,2.2,21,0.00,,---,0.00,VWS V13.01,2013-03-29 06:00:00,
2013-03-29 02:05:00,38.5,4.8,17.72,North,7,4.5,4.5,24,0.00,,---,0.00,VWS V13.01,2013-03-29 06:05:00,
2013-03-29 02:10:00,38.5,4.8,17.72,WSW,252,0.0,0.0,24,0.00,,---,0.00,VWS V13.01,2013-03-29 06:10:00,
2013-03-29 02:15:00,38.5,4.8,17.72,West,265,0.0,0.0,24,0.00,,---,0.00,VWS V13.01,2013-03-29 06:15:00,
2013-03-29 02:20:00,38.5,4.8,17.72,NE,39,2.7,2.7,24,0.00,,---,0.00,VWS V13.01,2013-03-29 06:20:00,
2013-03-29 02:25:00,38.5,4.8,17.72,NW,321,2.2,2.2,24,0.00,,---,0.00,VWS V13.01,2013-03-29 06:25:00,
2013-03-29 02:30:00,38.3,4.7,17.72,West,275,2.2,2.7,24,0.00,,---,0.00,VWS V13.01,2013-03-29 06:30:00,
2013-03-29 02:35:00,38.3,4.7,17.72,NW,317,2.7,2.7,24,0.00,,---,0.00,VWS V13.01,2013-03-29 06:35:00,
2013-03-29 02:40:00,38.3,4.7,17.72,West,280,2.7,4.0,24,0.00,,---,0.00,VWS V13.01,2013-03-29 06:40:00,
2013-03-29 02:45:00,38.3,4.7,17.72,West,260,0.0,0.0,24,0.00,,---,0.00,VWS V13.01,2013-03-29 06:45:00,
2013-03-29 02:50:00,38.1,4.5,17.72,WNW,294,3.1,3.1,24,0.00,,---,0.00,VWS V13.01,2013-03-29 06:50:00,
2013-03-29 02:55:00,38.1,4.5,17.72,NW,316,2.7,3.1,24,0.00,,---,0.00,VWS V13.01,2013-03-29 06:55:00,
2013-03-29 03:00:00,38.1,4.5,17.72,NW,311,0.0,0.0,24,0.00,,---,0.00,VWS V13.01,2013-03-29 07:00:00,
2013-03-29 03:05:00,38.1,4.5,17.72,NNW,327,0.0,0.0,24,0.00,,---,0.00,VWS V13.01,2013-03-29 07:05:00,
2013-03-29 03:10:00,38.1,4.5,17.72,WNW,291,0.0,2.2,24,0.00,,---,0.00,VWS V13.01,2013-03-29 07:10:00,
2013-03-29 03:15:00,38.1,4.5,17.72,West,275,0.0,3.1,24,0.00,,---,0.00,VWS V13.01,2013-03-29 07:15:00,
2013-03-29 03:20:00,38.1,4.5,17.72,NW,310,0.0,0.0,24,0.00,,---,0.00,VWS V13.01,2013-03-29 07:20:00,
2013-03-29 03:25:00,38.1,6.3,17.72,NW,310,0.0,0.0,26,0.00,,---,0.00,VWS V13.01,2013-03-29 07:25:00,
2013-03-29 03:30:00,37.9,6.1,17.72,West,277,3.1,3.1,26,0.00,,---,0.00,VWS V13.01,2013-03-29 07:30:00,
2013-03-29 03:35:00,37.9,6.1,17.72,North,353,0.0,0.0,26,0.00,,---,0.00,VWS V13.01,2013-03-29 07:35:00,
2013-03-29 03:40:00,37.9,6.1,17.72,NNW,335,0.0,0.0,26,0.00,,---,0.00,VWS V13.01,2013-03-29 07:40:00,
2013-03-29 03:44:00,37.9,6.1,17.72,NNW,332,0.0,0.0,26,0.00,,---,0.00,VWS V13.01,2013-03-29 07:44:00,
2013-03-29 03:49:00,37.9,6.1,17.72,NW,317,0.0,0.0,26,0.00,,---,0.00,VWS V13.01,2013-03-29 07:49:00,
2013-03-29 03:54:00,37.9,6.1,17.72,NW,317,0.0,0.0,26,0.00,,---,0.00,VWS V13.01,2013-03-29 07:54:00,
2013-03-29 03:59:00,37.9,6.1,17.72,North,353,0.0,0.0,26,0.00,,---,0.00,VWS V13.01,2013-03-29 07:59:00,
2013-03-29 04:04:00,37.9,6.1,17.72,WSW,256,2.2,2.7,26,0.00,,---,0.00,VWS V13.01,2013-03-29 08:04:00,
2013-03-29 04:09:00,37.9,6.1,17.72,WSW,249,2.7,2.7,26,0.00,,---,0.00,VWS V13.01,2013-03-29 08:09:00,
2013-03-29 04:14:00,37.9,6.1,17.72,North,11,0.0,0.0,26,0.00,,---,0.00,VWS V13.01,2013-03-29 08:14:00,
2013-03-29 04:19:00,37.9,6.1,17.72,West,269,0.0,3.1,26,0.00,,---,0.00,VWS V13.01,2013-03-29 08:19:00,
2013-03-29 04:24:00,37.9,6.1,17.72,WNW,299,0.0,0.0,26,0.00,,---,0.00,VWS V13.01,2013-03-29 08:24:00,
2013-03-29 04:29:00,37.9,6.1,17.72,NE,37,2.7,2.7,26,0.00,,---,0.00,VWS V13.01,2013-03-29 08:29:00,
2013-03-29 04:34:00,37.9,6.1,17.72,West,273,0.0,3.6,26,0.00,,---,0.00,VWS V13.01,2013-03-29 08:34:00,
2013-03-29 04:39:00,37.9,6.1,17.72,WNW,297,0.0,0.0,26,0.00,,---,0.00,VWS V13.01,2013-03-29 08:39:00,
2013-03-29 04:44:00,37.9,8.5,17.72,WNW,285,0.0,2.7,29,0.00,,---,0.00,VWS V13.01,2013-03-29 08:44:00,
2013-03-29 04:49:00,37.9,8.5,17.72,WSW,245,0.0,0.0,29,0.00,,---,0.00,VWS V13.01,2013-03-29 08:49:00,
2013-03-29 04:54:00,37.9,8.5,17.72,WSW,258,0.0,0.0,29,0.00,,---,0.00,VWS V13.01,2013-03-29 08:54:00,
2013-03-29 04:59:00,37.8,8.4,17.72,NNW,333,2.7,2.7,29,0.00,,---,0.00,VWS V13.01,2013-03-29 08:59:00,
2013-03-29 05:04:00,37.8,8.4,17.72,WNW,289,0.0,0.0,29,0.00,,---,0.00,VWS V13.01,2013-03-29 09:04:00,
2013-03-29 05:09:00,37.8,8.4,17.72,NW,326,0.0,3.6,29,0.00,,---,0.00,VWS V13.01,2013-03-29 09:09:00,
2013-03-29 05:14:00,37.8,8.4,17.72,WSW,248,0.0,0.0,29,0.00,,---,0.00,VWS V13.01,2013-03-29 09:14:00,
2013-03-29 05:19:00,37.6,8.2,17.72,West,264,0.0,0.0,29,0.00,,---,0.00,VWS V13.01,2013-03-29 09:19:00,
2013-03-29 05:24:00,37.8,8.4,17.72,WNW,285,0.0,0.0,29,0.00,,---,0.00,VWS V13.01,2013-03-29 09:24:00,
2013-03-29 05:29:00,37.8,8.4,17.72,NE,45,0.0,2.7,29,0.00,,---,0.00,VWS V13.01,2013-03-29 09:29:00,
2013-03-29 05:34:00,37.8,8.4,17.72,WNW,292,0.0,2.7,29,0.00,,---,0.00,VWS V13.01,2013-03-29 09:34:00,
2013-03-29 05:39:00,37.8,8.4,17.72,SE,138,0.0,4.0,29,0.00,,---,0.00,VWS V13.01,2013-03-29 09:39:00,
2013-03-29 05:44:00,37.8,8.4,17.72,SE,130,0.0,0.0,29,0.00,,---,0.00,VWS V13.01,2013-03-29 09:44:00,
2013-03-29 05:49:00,37.8,8.4,17.72,SW,236,0.0,3.1,29,0.00,,---,0.00,VWS V13.01,2013-03-29 09:49:00,
2013-03-29 05:54:00,37.8,8.4,17.72,SW,236,0.0,0.0,29,0.00,,---,0.00,VWS V13.01,2013-03-29 09:54:00,
2013-03-29 05:59:00,37.6,8.2,17.72,SW,230,0.0,0.0,29,0.00,,---,0.00,VWS V13.01,2013-03-29 09:59:00,
2013-03-29 06:04:00,37.6,8.2,17.72,WSW,247,0.0,2.2,29,0.00,,---,0.00,VWS V13.01,2013-03-29 10:04:00,
2013-03-29 06:09:00,37.6,8.2,17.72,NNW,332,0.0,0.0,29,0.00,,---,0.00,VWS V13.01,2013-03-29 10:09:00,
2013-03-29 06:14:00,37.6,8.2,17.72,West,275,0.0,2.7,29,0.00,,---,0.00,VWS V13.01,2013-03-29 10:14:00,
2013-03-29 06:19:00,37.6,8.2,17.72,North,349,0.0,0.0,29,0.00,,---,0.00,VWS V13.01,2013-03-29 10:19:00,
2013-03-29 06:24:00,37.6,8.2,17.72,WNW,303,0.0,0.0,29,0.00,,---,0.00,VWS V13.01,2013-03-29 10:24:00,
2013-03-29 06:29:00,37.4,8.1,17.72,NW,324,0.0,0.0,29,0.00,,---,0.00,VWS V13.01,2013-03-29 10:29:00,
2013-03-29 06:34:00,37.4,8.1,17.72,WSW,240,0.0,0.0,29,0.00,,---,0.00,VWS V13.01,2013-03-29 10:34:00,
2013-03-29 06:39:00,37.4,8.1,17.72,West,277,0.0,0.0,29,0.00,,---,0.00,VWS V13.01,2013-03-29 10:39:00,
2013-03-29 06:44:00,37.4,8.1,17.72,West,271,0.0,0.0,29,0.00,,---,0.00,VWS V13.01,2013-03-29 10:44:00,
2013-03-29 06:49:00,37.4,8.1,17.72,NW,322,0.0,4.0,29,0.00,,---,0.00,VWS V13.01,2013-03-29 10:49:00,
2013-03-29 06:54:00,37.4,8.1,17.72,WSW,241,0.0,0.0,29,0.00,,---,0.00,VWS V13.01,2013-03-29 10:54:00,
2013-03-29 06:59:00,37.4,8.1,17.72,NNW,348,0.0,0.0,29,0.00,,---,0.00,VWS V13.01,2013-03-29 10:59:00,
2013-03-29 07:04:00,37.4,8.1,17.72,NW,317,0.0,0.0,29,0.00,,---,0.00,VWS V13.01,2013-03-29 11:04:00,
2013-03-29 07:09:00,37.4,8.1,17.72,NNW,341,2.2,2.2,29,0.00,,---,0.00,VWS V13.01,2013-03-29 11:09:00,
2013-03-29 07:14:00,37.4,8.1,17.72,WNW,291,0.0,0.0,29,0.00,,---,0.00,VWS V13.01,2013-03-29 11:14:00,
2013-03-29 07:19:00,37.4,8.1,17.72,WNW,291,0.0,0.0,29,0.00,,---,0.00,VWS V13.01,2013-03-29 11:19:00,
2013-03-29 07:24:00,37.4,8.8,17.72,WNW,291,0.0,0.0,30,0.00,,---,0.00,VWS V13.01,2013-03-29 11:24:00,
2013-03-29 07:29:00,37.4,8.8,17.72,WSW,241,0.0,2.2,30,0.00,,---,0.00,VWS V13.01,2013-03-29 11:29:00,
2013-03-29 07:34:00,37.4,8.8,17.72,NNE,17,0.0,0.0,30,0.00,,---,0.00,VWS V13.01,2013-03-29 11:34:00,
2013-03-29 07:39:00,37.4,8.8,17.72,North,0,0.0,0.0,30,0.00,,---,0.00,VWS V13.01,2013-03-29 11:39:00,
2013-03-29 07:44:00,37.6,9.0,17.72,NW,304,0.0,0.0,30,0.00,,---,0.00,VWS V13.01,2013-03-29 11:44:00,
2013-03-29 07:49:00,37.6,9.0,17.72,WSW,253,0.0,2.7,30,0.00,,---,0.00,VWS V13.01,2013-03-29 11:49:00,
2013-03-29 07:54:00,37.6,9.0,17.72,South,185,0.0,4.0,30,0.00,,---,0.00,VWS V13.01,2013-03-29 11:54:00,
2013-03-29 07:59:00,37.8,9.1,17.72,WSW,238,0.0,0.0,30,0.00,,---,0.00,VWS V13.01,2013-03-29 11:59:00,
2013-03-29 08:04:00,37.9,9.3,17.72,WSW,258,0.0,0.0,30,0.00,,---,0.00,VWS V13.01,2013-03-29 12:04:00,
2013-03-29 08:09:00,37.9,9.3,17.72,NNE,18,0.0,0.0,30,0.00,,---,0.00,VWS V13.01,2013-03-29 12:09:00,
2013-03-29 08:14:00,38.1,9.4,17.72,North,357,2.2,3.1,30,0.00,,---,0.00,VWS V13.01,2013-03-29 12:14:00,
2013-03-29 08:19:00,38.1,9.4,17.72,NE,38,2.2,2.2,30,0.00,,---,0.00,VWS V13.01,2013-03-29 12:19:00,
2013-03-29 08:24:00,38.5,9.8,17.72,NNE,12,0.0,0.0,30,0.00,,---,0.00,VWS V13.01,2013-03-29 12:24:00,
2013-03-29 08:29:00,38.5,9.8,17.72,North,11,0.0,0.0,30,0.00,,---,0.00,VWS V13.01,2013-03-29 12:29:00,
2013-03-29 08:34:00,38.7,9.9,17.72,West,263,0.0,4.0,30,0.00,,---,0.00,VWS V13.01,2013-03-29 12:34:00,
2013-03-29 08:39:00,38.8,10.1,17.72,NNE,14,3.1,3.6,30,0.00,,---,0.00,VWS V13.01,2013-03-29 12:39:00,
2013-03-29 08:44:00,38.8,10.1,17.72,WNW,289,0.0,0.0,30,0.00,,---,0.00,VWS V13.01,2013-03-29 12:44:00,
2013-03-29 08:49:00,39.2,9.6,17.72,SSW,202,2.2,3.6,29,0.00,,---,0.00,VWS V13.01,2013-03-29 12:49:00,
2013-03-29 08:54:00,39.4,9.8,17.72,NE,34,3.1,3.1,29,0.00,,---,0.00,VWS V13.01,2013-03-29 12:54:00,
2013-03-29 08:59:00,39.6,9.9,17.72,NW,304,3.6,3.6,29,0.00,,---,0.00,VWS V13.01,2013-03-29 12:59:00,
2013-03-29 09:04:00,39.6,9.9,17.72,SW,234,0.0,2.2,29,0.00,,---,0.00,VWS V13.01,2013-03-29 13:04:00,
2013-03-29 09:09:00,39.6,9.9,17.72,NW,307,3.6,5.4,29,0.00,,---,0.00,VWS V13.01,2013-03-29 13:09:00,
2013-03-29 09:14:00,39.6,9.2,17.72,North,353,0.0,2.2,28,0.00,,---,0.00,VWS V13.01,2013-03-29 13:14:00,
2013-03-29 09:19:00,39.7,9.3,17.72,SSW,208,4.0,4.0,28,0.00,,---,0.00,VWS V13.01,2013-03-29 13:19:00,
2013-03-29 09:24:00,39.9,9.5,17.72,WNW,283,4.0,4.0,28,0.00,,---,0.00,VWS V13.01,2013-03-29 13:24:00,
2013-03-29 09:29:00,39.9,9.5,17.72,WSW,244,0.0,3.1,28,0.00,,---,0.00,VWS V13.01,2013-03-29 13:29:00,
2013-03-29 09:34:00,39.9,9.5,17.72,WSW,249,0.0,2.7,28,0.00,,---,0.00,VWS V13.01,2013-03-29 13:34:00,
2013-03-29 09:39:00,39.9,9.5,17.72,West,261,0.0,0.0,28,0.00,,---,0.00,VWS V13.01,2013-03-29 13:39:00,
2013-03-29 09:44:00,40.1,9.6,17.72,NNE,17,2.7,2.7,28,0.00,,---,0.00,VWS V13.01,2013-03-29 13:44:00,
2013-03-29 09:49:00,40.1,8.0,17.72,West,276,0.0,0.0,26,0.00,,---,0.00,VWS V13.01,2013-03-29 13:49:00,
2013-03-29 09:54:00,40.3,8.1,17.72,SSW,198,0.0,4.0,26,0.00,,---,0.00,VWS V13.01,2013-03-29 13:54:00,
2013-03-29 09:59:00,40.3,8.1,17.72,WNW,289,2.2,4.0,26,0.00,,---,0.00,VWS V13.01,2013-03-29 13:59:00,
2013-03-29 10:04:00,40.3,8.1,17.72,NNE,12,0.0,3.1,26,0.00,,---,0.00,VWS V13.01,2013-03-29 14:04:00,
2013-03-29 10:09:00,40.5,8.3,17.72,North,9,0.0,0.0,26,0.00,,---,0.00,VWS V13.01,2013-03-29 14:09:00,
2013-03-29 10:14:00,40.6,8.4,17.72,West,275,2.7,2.7,26,0.00,,---,0.00,VWS V13.01,2013-03-29 14:14:00,
2013-03-29 10:19:00,41.2,8.9,17.72,WSW,256,2.7,2.7,26,0.00,,---,0.00,VWS V13.01,2013-03-29 14:19:00,
2013-03-29 10:24:00,41.5,9.2,17.72,West,280,3.1,3.1,26,0.00,,---,0.00,VWS V13.01,2013-03-29 14:24:00,
2013-03-29 10:29:00,41.7,9.4,17.72,West,266,3.1,3.1,26,0.00,,---,0.00,VWS V13.01,2013-03-29 14:29:00,
2013-03-29 10:34:00,42.1,9.7,17.72,NNE,14,0.0,0.0,26,0.00,,---,0.00,VWS V13.01,2013-03-29 14:34:00,
2013-03-29 10:39:00,42.3,7.1,17.72,WSW,247,2.2,4.0,23,0.00,,---,0.00,VWS V13.01,2013-03-29 14:39:00,
2013-03-29 10:44:00,42.4,7.3,17.72,West,281,0.0,0.0,23,0.00,,---,0.00,VWS V13.01,2013-03-29 14:44:00,
2013-03-29 10:49:00,42.6,7.4,17.72,SSW,196,3.1,3.1,23,0.00,,---,0.00,VWS V13.01,2013-03-29 14:49:00,
2013-03-29 10:54:00,42.8,4.5,17.72,NW,311,0.0,0.0,20,0.00,,---,0.00,VWS V13.01,2013-03-29 14:54:00,
2013-03-29 10:59:00,43.2,4.8,17.72,WSW,246,2.7,3.1,20,0.00,,---,0.00,VWS V13.01,2013-03-29 14:59:00,
2013-03-29 11:04:00,43.3,5.0,17.72,WSW,240,2.7,2.7,20,0.00,,---,0.00,VWS V13.01,2013-03-29 15:04:00,
2013-03-29 11:09:00,43.3,5.0,17.72,NE,35,2.7,2.7,20,0.00,,---,0.00,VWS V13.01,2013-03-29 15:09:00,
2013-03-29 11:14:00,43.3,5.0,17.72,NNE,15,2.2,2.2,20,0.00,,---,0.00,VWS V13.01,2013-03-29 15:14:00,
2013-03-29 11:19:00,43.7,5.3,17.72,WNW,291,3.1,3.1,20,0.00,,---,0.00,VWS V13.01,2013-03-29 15:19:00,
2013-03-29 11:24:00,44.1,5.6,17.72,West,266,3.6,4.0,20,0.00,,---,0.00,VWS V13.01,2013-03-29 15:24:00,
2013-03-29 11:29:00,44.4,3.6,17.72,SW,228,3.6,3.6,18,0.00,,---,0.00,VWS V13.01,2013-03-29 15:29:00,
2013-03-29 11:34:00,44.8,2.6,17.72,West,274,0.0,0.0,17,0.00,,---,0.00,VWS V13.01,2013-03-29 15:34:00,
2013-03-29 11:39:00,45.1,2.9,17.72,NNW,332,0.0,0.0,17,0.00,,---,0.00,VWS V13.01,2013-03-29 15:39:00,
2013-03-29 11:44:00,45.3,3.1,17.72,WNW,286,4.0,4.0,17,0.00,,---,0.00,VWS V13.01,2013-03-29 15:44:00,
2013-03-29 11:49:00,45.3,3.1,17.72,NE,53,4.0,4.0,17,0.00,,---,0.00,VWS V13.01,2013-03-29 15:49:00,
2013-03-29 11:54:00,45.1,2.9,17.72,NNE,25,2.2,2.2,17,0.00,,---,0.00,VWS V13.01,2013-03-29 15:54:00,
2013-03-29 11:59:00,45.1,2.9,17.72,North,9,3.1,3.1,17,0.00,,---,0.00,VWS V13.01,2013-03-29 15:59:00,
2013-03-29 12:04:00,45.3,3.1,17.72,NE,52,0.0,2.2,17,0.00,,---,0.00,VWS V13.01,2013-03-29 16:04:00,
2013-03-29 12:09:00,45.1,2.9,17.72,NW,323,3.1,3.1,17,0.00,,---,0.00,VWS V13.01,2013-03-29 16:09:00,
2013-03-29 12:14:00,45.3,3.1,17.72,NNE,13,0.0,0.0,17,0.00,,---,0.00,VWS V13.01,2013-03-29 16:14:00,
2013-03-29 12:19:00,45.3,3.1,17.72,SE,134,2.2,2.7,17,0.00,,---,0.00,VWS V13.01,2013-03-29 16:19:00,
2013-03-29 12:24:00,45.5,3.2,17.72,East,90,2.2,2.2,17,0.00,,---,0.00,VWS V13.01,2013-03-29 16:24:00,
2013-03-29 12:29:00,45.5,3.2,17.72,ESE,119,0.0,0.0,17,0.00,,---,0.00,VWS V13.01,2013-03-29 16:29:00,
2013-03-29 12:34:00,45.7,3.4,17.72,NNE,24,5.4,5.4,17,0.00,,---,0.00,VWS V13.01,2013-03-29 16:34:00,
2013-03-29 12:39:00,45.9,3.5,17.72,East,79,0.0,0.0,17,0.00,,---,0.00,VWS V13.01,2013-03-29 16:39:00,
2013-03-29 12:44:00,46.0,3.7,17.72,North,0,3.1,4.9,17,0.00,,---,0.00,VWS V13.01,2013-03-29 16:44:00,
2013-03-29 12:49:00,45.3,3.1,17.72,ENE,76,2.7,3.1,17,0.00,,---,0.00,VWS V13.01,2013-03-29 16:49:00,
2013-03-29 12:54:00,45.1,2.9,17.72,ENE,78,3.1,3.1,17,0.00,,---,0.00,VWS V13.01,2013-03-29 16:54:00,
2013-03-29 12:59:00,45.0,2.8,17.72,North,11,3.1,3.1,17,0.00,,---,0.00,VWS V13.01,2013-03-29 16:59:00,
2013-03-29 13:04:00,44.8,2.6,17.72,North,3,2.7,2.7,17,0.00,,---,0.00,VWS V13.01,2013-03-29 17:04:00,
2013-03-29 13:09:00,44.8,2.6,17.72,East,88,3.6,3.6,17,0.00,,---,0.00,VWS V13.01,2013-03-29 17:09:00,
2013-03-29 13:14:00,45.1,2.9,17.72,NNW,344,2.7,3.1,17,0.00,,---,0.00,VWS V13.01,2013-03-29 17:14:00,
2013-03-29 13:19:00,46.2,3.8,17.72,ENE,57,2.7,2.7,17,0.00,,---,0.00,VWS V13.01,2013-03-29 17:19:00,
2013-03-29 13:24:00,46.2,3.8,17.72,ENE,76,5.4,5.4,17,0.00,,---,0.00,VWS V13.01,2013-03-29 17:24:00,
2013-03-29 13:29:00,45.9,3.5,17.72,East,85,3.6,3.6,17,0.00,,---,0.00,VWS V13.01,2013-03-29 17:29:00,
2013-03-29 13:34:00,46.4,4.0,17.72,South,172,0.0,2.2,17,0.00,,---,0.00,VWS V13.01,2013-03-29 17:34:00,
2013-03-29 13:39:00,47.1,4.6,17.72,NNE,20,3.6,3.6,17,0.00,,---,0.00,VWS V13.01,2013-03-29 17:39:00,
2013-03-29 13:44:00,47.3,4.7,17.72,North,357,2.2,4.9,17,0.00,,---,0.00,VWS V13.01,2013-03-29 17:44:00,
2013-03-29 13:49:00,46.8,0.1,17.72,NE,54,0.0,0.0,14,0.00,,---,0.00,VWS V13.01,2013-03-29 17:49:00,
2013-03-29 13:54:00,46.0,1.0,17.72,NE,38,3.1,3.6,15,0.00,,---,0.00,VWS V13.01,2013-03-29 17:54:00,
2013-03-29 13:59:00,45.7,0.7,17.72,NE,51,4.0,4.0,15,0.00,,---,0.00,VWS V13.01,2013-03-29 17:59:00,
2013-03-29 14:04:00,45.3,0.4,17.72,East,88,4.0,5.8,15,0.00,,---,0.00,VWS V13.01,2013-03-29 18:04:00,
2013-03-29 14:09:00,45.3,0.4,17.72,East,85,4.0,5.4,15,0.00,,---,0.00,VWS V13.01,2013-03-29 18:09:00,
2013-03-29 14:14:00,45.7,0.7,17.72,SE,129,0.0,0.0,15,0.00,,---,0.00,VWS V13.01,2013-03-29 18:14:00,
2013-03-29 14:19:00,46.8,4.3,17.72,North,8,0.0,3.1,17,0.00,,---,0.00,VWS V13.01,2013-03-29 18:19:00,
2013-03-29 14:24:00,46.6,-0.1,17.72,ENE,65,2.2,2.2,14,0.00,,---,0.00,VWS V13.01,2013-03-29 18:24:00,
2013-03-29 14:29:00,46.4,-0.2,17.72,NNE,15,0.0,2.7,14,0.00,,---,0.00,VWS V13.01,2013-03-29 18:29:00,
2013-03-29 14:34:00,46.9,0.2,17.72,North,7,4.0,4.0,14,0.00,,---,0.00,VWS V13.01,2013-03-29 18:34:00,
2013-03-29 14:39:00,46.4,-0.2,17.72,North,2,0.0,0.0,14,0.00,,---,0.00,VWS V13.01,2013-03-29 18:39:00,
2013-03-29 14:44:00,46.0,1.0,17.72,North,357,3.1,3.1,15,0.00,,---,0.00,VWS V13.01,2013-03-29 18:44:00,
2013-03-29 14:49:00,46.6,-0.1,17.72,North,357,2.2,3.6,14,0.00,,---,0.00,VWS V13.01,2013-03-29 18:49:00,
2013-03-29 14:54:00,48.0,1.1,17.72,NE,46,4.0,4.0,14,0.00,,---,0.00,VWS V13.01,2013-03-29 18:54:00,
2013-03-29 14:59:00,48.6,1.5,17.72,WNW,282,4.0,5.8,14,0.00,,---,0.00,VWS V13.01,2013-03-29 18:59:00,
2013-03-29 15:04:00,49.3,2.1,17.72,ENE,59,4.0,4.0,14,0.00,,---,0.00,VWS V13.01,2013-03-29 19:04:00,
2013-03-29 15:09:00,49.8,2.5,17.72,NE,44,4.0,5.8,14,0.00,,---,0.00,VWS V13.01,2013-03-29 19:09:00,
2013-03-29 15:14:00,50.2,2.8,17.72,NNW,343,2.7,4.0,14,0.00,,---,0.00,VWS V13.01,2013-03-29 19:14:00,
2013-03-29 15:19:00,50.5,3.1,17.72,East,82,0.0,4.0,14,0.00,,---,0.00,VWS V13.01,2013-03-29 19:19:00,
2013-03-29 15:24:00,50.7,3.3,17.72,NE,45,3.1,5.4,14,0.00,,---,0.00,VWS V13.01,2013-03-29 19:24:00,
2013-03-29 15:29:00,50.9,3.4,17.72,NE,56,3.1,5.4,14,0.00,,---,0.00,VWS V13.01,2013-03-29 19:29:00,
2013-03-29 15:34:00,51.3,3.7,17.72,ESE,117,2.2,3.6,14,0.00,,---,0.00,VWS V13.01,2013-03-29 19:34:00,
2013-03-29 15:39:00,51.6,4.0,17.72,NNW,335,3.1,3.1,14,0.00,,---,0.00,VWS V13.01,2013-03-29 19:39:00,
2013-03-29 15:44:00,52.0,2.7,17.72,NNE,31,0.0,6.3,13,0.00,,---,0.00,VWS V13.01,2013-03-29 19:44:00,
2013-03-29 15:49:00,52.2,2.8,17.72,NE,41,5.4,5.4,13,0.00,,---,0.00,VWS V13.01,2013-03-29 19:49:00,
2013-03-29 15:54:00,52.3,3.0,17.72,NNE,28,2.2,4.9,13,0.00,,---,0.00,VWS V13.01,2013-03-29 19:54:00,
2013-03-29 15:59:00,52.2,2.8,17.72,ENE,64,6.3,6.3,13,0.00,,---,0.00,VWS V13.01,2013-03-29 19:59:00,
2013-03-29 16:04:00,52.2,2.8,17.72,NNE,15,0.0,3.6,13,0.00,,---,0.00,VWS V13.01,2013-03-29 20:04:00,
2013-03-29 16:09:00,52.2,2.8,17.72,North,3,3.1,3.1,13,0.00,,---,0.00,VWS V13.01,2013-03-29 20:09:00,
2013-03-29 16:14:00,52.2,2.8,17.72,NNE,29,0.0,2.2,13,0.00,,---,0.00,VWS V13.01,2013-03-29 20:14:00,
2013-03-29 16:19:00,52.2,2.8,17.72,NNE,12,2.7,3.6,13,0.00,,---,0.00,VWS V13.01,2013-03-29 20:19:00,
2013-03-29 16:24:00,52.2,2.8,17.72,NNE,30,4.0,6.3,13,0.00,,---,0.00,VWS V13.01,2013-03-29 20:24:00,
2013-03-29 16:29:00,52.2,2.8,17.72,ENE,63,0.0,3.6,13,0.00,,---,0.00,VWS V13.01,2013-03-29 20:29:00,
2013-03-29 16:34:00,52.3,3.0,17.72,ENE,59,3.6,7.2,13,0.00,,---,0.00,VWS V13.01,2013-03-29 20:34:00,
2013-03-29 16:39:00,52.5,3.1,17.72,ESE,116,4.9,4.9,13,0.00,,---,0.00,VWS V13.01,2013-03-29 20:39:00,
2013-03-29 16:44:00,52.5,3.1,17.72,ENE,66,2.7,5.4,13,0.00,,---,0.00,VWS V13.01,2013-03-29 20:44:00,
2013-03-29 16:49:00,52.2,2.8,17.72,North,1,3.1,5.4,13,0.00,,---,0.00,VWS V13.01,2013-03-29 20:49:00,
2013-03-29 16:54:00,52.2,2.8,17.72,NE,35,4.0,5.4,13,0.00,,---,0.00,VWS V13.01,2013-03-29 20:54:00,
2013-03-29 16:59:00,52.2,2.8,17.72,WNW,301,3.6,3.6,13,0.00,,---,0.00,VWS V13.01,2013-03-29 20:59:00,
2013-03-29 17:04:00,52.5,3.1,17.72,NE,36,3.6,3.6,13,0.00,,---,0.00,VWS V13.01,2013-03-29 21:04:00,
2013-03-29 17:09:00,52.3,3.0,17.72,NE,39,3.6,5.8,13,0.00,,---,0.00,VWS V13.01,2013-03-29 21:09:00,
2013-03-29 17:14:00,52.0,2.7,17.72,NNE,12,0.0,0.0,13,0.00,,---,0.00,VWS V13.01,2013-03-29 21:14:00,
2013-03-29 17:19:00,52.3,3.0,17.72,East,89,4.9,4.9,13,0.00,,---,0.00,VWS V13.01,2013-03-29 21:19:00,
2013-03-29 17:24:00,52.3,3.0,17.72,ENE,78,2.7,5.4,13,0.00,,---,0.00,VWS V13.01,2013-03-29 21:24:00,
2013-03-29 17:29:00,52.3,3.0,17.72,North,9,3.1,3.6,13,0.00,,---,0.00,VWS V13.01,2013-03-29 21:29:00,
2013-03-29 17:34:00,52.2,2.8,17.72,ENE,71,0.0,3.6,13,0.00,,---,0.00,VWS V13.01,2013-03-29 21:34:00,
2013-03-29 17:39:00,51.8,2.5,17.72,NNE,33,2.7,4.9,13,0.00,,---,0.00,VWS V13.01,2013-03-29 21:39:00,
2013-03-29 17:44:00,51.6,4.0,17.72,NE,49,3.1,4.0,14,0.00,,---,0.00,VWS V13.01,2013-03-29 21:44:00,
2013-03-29 17:49:00,51.6,4.0,17.72,North,1,0.0,3.6,14,0.00,,---,0.00,VWS V13.01,2013-03-29 21:49:00,
2013-03-29 17:54:00,51.4,3.8,17.72,NNE,12,0.0,3.6,14,0.00,,---,0.00,VWS V13.01,2013-03-29 21:54:00,
2013-03-29 17:59:00,50.9,3.4,17.72,East,79,4.0,4.0,14,0.00,,---,0.00,VWS V13.01,2013-03-29 21:59:00,
2013-03-29 18:04:00,50.2,2.8,17.72,NW,324,0.0,4.0,14,0.00,,---,0.00,VWS V13.01,2013-03-29 22:04:00,
2013-03-29 18:09:00,49.5,2.3,17.72,NE,54,3.1,3.1,14,0.00,,---,0.00,VWS V13.01,2013-03-29 22:09:00,
2013-03-29 18:14:00,49.1,2.0,17.72,ENE,62,5.8,5.8,14,0.00,,---,0.00,VWS V13.01,2013-03-29 22:14:00,
2013-03-29 18:19:00,48.7,1.7,17.72,NNE,32,3.1,3.1,14,0.00,,---,0.00,VWS V13.01,2013-03-29 22:19:00,
2013-03-29 18:24:00,48.7,1.7,17.72,North,8,0.0,3.1,14,0.00,,---,0.00,VWS V13.01,2013-03-29 22:24:00,
2013-03-29 18:29:00,48.6,1.5,17.72,North,6,3.1,3.1,14,0.00,,---,0.00,VWS V13.01,2013-03-29 22:29:00,
2013-03-29 18:34:00,48.4,1.4,17.72,West,263,0.0,3.6,14,0.00,,---,0.00,VWS V13.01,2013-03-29 22:34:00,
2013-03-29 18:39:00,48.2,1.2,17.72,SW,234,0.0,3.1,14,0.00,,---,0.00,VWS V13.01,2013-03-29 22:39:00,
2013-03-29 18:44:00,48.0,1.1,17.72,SW,235,0.0,0.0,14,0.00,,---,0.00,VWS V13.01,2013-03-29 22:44:00,
2013-03-29 18:49:00,47.8,1.0,17.72,SW,235,0.0,0.0,14,0.00,,---,0.00,VWS V13.01,2013-03-29 22:49:00,
2013-03-29 18:54:00,47.8,1.0,17.72,North,5,0.0,0.0,14,0.00,,---,0.00,VWS V13.01,2013-03-29 22:54:00,
2013-03-29 18:59:00,47.5,0.7,17.72,WSW,248,0.0,0.0,14,0.00,,---,0.00,VWS V13.01,2013-03-29 22:59:00,
2013-03-29 19:04:00,47.3,0.5,17.72,NE,43,2.2,3.1,14,0.00,,---,0.00,VWS V13.01,2013-03-29 23:04:00,
2013-03-29 19:09:00,47.3,0.5,17.72,NW,312,0.0,0.0,14,0.00,,---,0.00,VWS V13.01,2013-03-29 23:09:00,
2013-03-29 19:14:00,46.9,0.2,17.72,NNE,17,3.6,7.6,14,0.00,,---,0.00,VWS V13.01,2013-03-29 23:14:00,
2013-03-29 19:19:00,46.9,0.2,17.72,North,353,0.0,2.7,14,0.00,,---,0.00,VWS V13.01,2013-03-29 23:19:00,
2013-03-29 19:24:00,46.8,0.1,17.72,North,353,0.0,0.0,14,0.00,,---,0.00,VWS V13.01,2013-03-29 23:24:00,
2013-03-29 19:29:00,46.4,-0.2,17.72,NW,321,0.0,0.0,14,0.00,,---,0.00,VWS V13.01,2013-03-29 23:29:00,
2013-03-29 19:34:00,46.2,1.1,17.72,North,357,0.0,0.0,15,0.00,,---,0.00,VWS V13.01,2013-03-29 23:34:00,
2013-03-29 19:39:00,45.9,0.8,17.72,NNE,17,2.7,2.7,15,0.00,,---,0.00,VWS V13.01,2013-03-29 23:39:00,
2013-03-29 19:44:00,45.7,0.7,17.72,NNE,17,0.0,0.0,15,0.00,,---,0.00,VWS V13.01,2013-03-29 23:44:00,
2013-03-29 19:49:00,45.3,0.4,17.72,NNE,17,0.0,0.0,15,0.00,,---,0.00,VWS V13.01,2013-03-29 23:49:00,
2013-03-29 19:54:00,45.1,0.3,17.72,North,5,0.0,0.0,15,0.00,,---,0.00,VWS V13.01,2013-03-29 23:54:00,
2013-03-29 19:59:00,45.1,0.3,17.72,North,6,0.0,2.2,15,0.00,,---,0.00,VWS V13.01,2013-03-29 23:59:00,
2013-03-29 20:04:00,45.3,0.4,17.72,WNW,288,0.0,2.2,15,0.00,,---,0.00,VWS V13.01,2013-03-30 00:04:00,
2013-03-29 20:09:00,45.5,0.6,17.72,WNW,288,0.0,0.0,15,0.00,,---,0.00,VWS V13.01,2013-03-30 00:09:00,
2013-03-29 20:14:00,45.5,0.6,17.72,WNW,288,0.0,0.0,15,0.00,,---,0.00,VWS V13.01,2013-03-30 00:14:00,
2013-03-29 20:19:00,45.5,0.6,17.72,WNW,288,0.0,0.0,15,0.00,,---,0.00,VWS V13.01,2013-03-30 00:19:00,
2013-03-29 20:24:00,45.3,0.4,17.72,WNW,288,0.0,0.0,15,0.00,,---,0.00,VWS V13.01,2013-03-30 00:24:00,
2013-03-29 20:29:00,45.1,0.3,17.72,WNW,288,0.0,0.0,15,0.00,,---,0.00,VWS V13.01,2013-03-30 00:29:00,
2013-03-29 20:34:00,44.8,0.0,17.72,West,281,0.0,0.0,15,0.00,,---,0.00,VWS V13.01,2013-03-30 00:34:00,
2013-03-29 20:39:00,44.8,0.0,17.72,West,277,2.7,2.7,15,0.00,,---,0.00,VWS V13.01,2013-03-30 00:39:00,
2013-03-29 20:44:00,45.1,0.3,17.72,North,7,0.0,0.0,15,0.00,,---,0.00,VWS V13.01,2013-03-30 00:44:00,
2013-03-29 20:49:00,45.3,0.4,17.72,NNE,31,0.0,0.0,15,0.00,,---,0.00,VWS V13.01,2013-03-30 00:49:00,
2013-03-29 20:54:00,45.1,0.3,17.72,NNE,13,0.0,2.2,15,0.00,,---,0.00,VWS V13.01,2013-03-30 00:54:00,
2013-03-29 20:59:00,44.8,0.0,17.72,NNW,341,0.0,0.0,15,0.00,,---,0.00,VWS V13.01,2013-03-30 00:59:00,
2013-03-29 21:04:00,44.6,-0.2,17.72,NE,47,0.0,0.0,15,0.00,,---,0.00,VWS V13.01,2013-03-30 01:04:00,
2013-03-29 21:09:00,44.6,-0.2,17.72,NNE,15,3.6,3.6,15,0.00,,---,0.00,VWS V13.01,2013-03-30 01:09:00,
2013-03-29 21:14:00,44.4,-0.3,17.72,SW,224,2.7,5.8,15,0.00,,---,0.00,VWS V13.01,2013-03-30 01:14:00,
2013-03-29 21:19:00,44.2,-0.5,17.72,South,176,2.2,2.7,15,0.00,,---,0.00,VWS V13.01,2013-03-30 01:19:00,
2013-03-29 21:24:00,44.1,-0.6,17.72,South,176,0.0,0.0,15,0.00,,---,0.00,VWS V13.01,2013-03-30 01:24:00,
2013-03-29 21:29:00,43.5,-1.1,17.72,North,8,0.0,0.0,15,0.00,,---,0.00,VWS V13.01,2013-03-30 01:29:00,
2013-03-29 21:34:00,43.3,-1.2,17.72,North,353,0.0,2.2,15,0.00,,---,0.00,VWS V13.01,2013-03-30 01:34:00,
2013-03-29 21:39:00,42.8,-1.6,17.72,West,261,0.0,0.0,15,0.00,,---,0.00,VWS V13.01,2013-03-30 01:39:00,
2013-03-29 21:44:00,42.4,-0.6,17.72,West,261,0.0,0.0,16,0.00,,---,0.00,VWS V13.01,2013-03-30 01:44:00,
2013-03-29 21:49:00,42.3,-0.7,17.72,West,261,0.0,0.0,16,0.00,,---,0.00,VWS V13.01,2013-03-30 01:49:00,
2013-03-29 21:54:00,41.9,-1.0,17.72,West,271,0.0,3.1,16,0.00,,---,0.00,VWS V13.01,2013-03-30 01:54:00,
2013-03-29 21:59:00,41.9,-1.0,17.72,WNW,298,4.0,4.0,16,0.00,,---,0.00,VWS V13.01,2013-03-30 01:59:00,
2013-03-29 22:04:00,41.9,-1.0,17.72,North,10,0.0,0.0,16,0.00,,---,0.00,VWS V13.01,2013-03-30 02:04:00,
2013-03-29 22:09:00,41.9,-1.0,17.72,West,278,0.0,2.7,16,0.00,,---,0.00,VWS V13.01,2013-03-30 02:09:00,
2013-03-29 22:14:00,41.7,-1.2,17.72,WSW,237,0.0,2.2,16,0.00,,---,0.00,VWS V13.01,2013-03-30 02:14:00,
2013-03-29 22:19:00,41.5,-1.3,17.72,NNW,341,3.1,3.1,16,0.00,,---,0.00,VWS V13.01,2013-03-30 02:19:00,
2013-03-29 22:24:00,41.4,-1.5,17.72,West,274,0.0,0.0,16,0.00,,---,0.00,VWS V13.01,2013-03-30 02:24:00,
2013-03-29 22:29:00,41.0,-1.7,17.72,NNE,18,5.4,5.4,16,0.00,,---,0.00,VWS V13.01,2013-03-30 02:29:00,
2013-03-29 22:34:00,41.0,-1.7,17.72,North,3,2.2,2.2,16,0.00,,---,0.00,VWS V13.01,2013-03-30 02:34:00,
2013-03-29 22:39:00,40.8,-1.9,17.72,WSW,243,0.0,0.0,16,0.00,,---,0.00,VWS V13.01,2013-03-30 02:39:00,
2013-03-29 22:44:00,40.5,-2.2,17.72,WSW,243,0.0,0.0,16,0.00,,---,0.00,VWS V13.01,2013-03-30 02:44:00,
2013-03-29 22:49:00,40.1,-2.5,17.72,WSW,244,0.0,0.0,16,0.00,,---,0.00,VWS V13.01,2013-03-30 02:49:00,
2013-03-29 22:54:00,39.7,-2.8,17.72,WSW,254,0.0,0.0,16,0.00,,---,0.00,VWS V13.01,2013-03-30 02:54:00,
2013-03-29 22:59:00,39.4,-3.1,17.72,WSW,256,0.0,0.0,16,0.00,,---,0.00,VWS V13.01,2013-03-30 02:59:00,
2013-03-29 23:04:00,39.2,-3.2,17.72,WSW,257,0.0,0.0,16,0.00,,---,0.00,VWS V13.01,2013-03-30 03:04:00,
2013-03-29 23:09:00,39.0,-3.4,17.72,WSW,239,0.0,0.0,16,0.00,,---,0.00,VWS V13.01,2013-03-30 03:09:00,
2013-03-29 23:14:00,38.7,-3.7,17.72,WSW,241,0.0,0.0,16,0.00,,---,0.00,VWS V13.01,2013-03-30 03:14:00,
2013-03-29 23:19:00,38.5,-3.8,17.72,WSW,247,0.0,0.0,16,0.00,,---,0.00,VWS V13.01,2013-03-30 03:19:00,
2013-03-29 23:24:00,38.5,-3.8,17.72,WSW,240,0.0,0.0,16,0.00,,---,0.00,VWS V13.01,2013-03-30 03:24:00,
2013-03-29 23:29:00,38.5,-3.8,17.72,West,259,0.0,0.0,16,0.00,,---,0.00,VWS V13.01,2013-03-30 03:29:00,
2013-03-29 23:34:00,38.3,-4.0,17.72,West,259,0.0,0.0,16,0.00,,---,0.00,VWS V13.01,2013-03-30 03:34:00,
2013-03-29 23:39:00,37.9,-4.2,17.72,West,259,0.0,0.0,16,0.00,,---,0.00,VWS V13.01,2013-03-30 03:39:00,
2013-03-29 23:44:00,37.6,-4.5,17.72,WSW,256,0.0,0.0,16,0.00,,---,0.00,VWS V13.01,2013-03-30 03:44:00,
2013-03-29 23:49:00,37.2,-3.6,17.72,WSW,255,0.0,0.0,17,0.00,,---,0.00,VWS V13.01,2013-03-30 03:49:00,
2013-03-29 23:54:00,36.9,-3.9,17.72,WSW,256,0.0,0.0,17,0.00,,---,0.00,VWS V13.01,2013-03-30 03:54:00,
2013-03-29 23:59:00,36.7,-4.0,17.72,WSW,255,0.0,0.0,17,0.00,,---,0.00,VWS V13.01,2013-03-30 03:59:00,